171.64.65.56 ???

Moderators: Site Moderators, PandeGroup

171.64.65.56 ???

Postby Grandpa_01 » Wed Aug 18, 2010 2:38 am

I was going through my logs today and noticed a strange pattern of behavior on the rig that runs -smp and uses server 171.64.65.56 It appears that every other WU that downloads from this server is some how getting corrupted. If you look at the log below every other WU errors out at start up with core status =FF (255) then the next downloaded WU runs perfectly to completion. I looked back and this has been going on for a while. Is anybody seeing this behavior ? and could this be contributing to the heavy loads on the server.

[04:35:41] CoreStatus = FF (255)
[04:35:41] Sending work to server
[04:35:41] Project: 6702 (Run 13, Clone 85, Gen 26)
[04:35:41] - Error: Could not get length of results file work/wuresults_03.dat
[04:35:41] - Error: Could not read unit 03 file. Removing from queue.


Code: Select all
# Windows SMP Console Edition #################################################
###############################################################################

                       Folding@Home Client Version 6.30

                          http://folding.stanford.edu

###############################################################################
###############################################################################

Launch directory: C:\FAH
Service: C:\FAH\fah6.exe
Arguments: -svcstart -d C:\FAH -smp

Launched as a service.
Entered C:\FAH to do work.

[04:35:18] - Ask before connecting: No
[04:35:18] - User name: Grandpa (Team 51394)
[04:35:18] - User ID: 76BA633512CA5437
[04:35:18] - Machine ID: 3
[04:35:18]
[04:35:18] Loaded queue successfully.
[04:35:18]
[04:35:18] + Processing work unit
[04:35:18] Core required: FahCore_a3.exe
[04:35:18] Core found.
[04:35:18] Working on queue slot 03 [August 16 04:35:18 UTC]
[04:35:18] + Working ...
[04:35:18]
[04:35:18] *------------------------------*
[04:35:18] Folding@Home Gromacs SMP Core
[04:35:18] Version 2.22 (Mar 12, 2010)
[04:35:18]
[04:35:18] Preparing to commence simulation
[04:35:18] - Ensuring status. Please wait.
[04:35:28] - Looking at optimizations...
[04:35:28] - Working with standard loops on this execution.
[04:35:28] - Previous termination of core was improper.
[04:35:28] - Files status OK
[04:35:28] - Expanded 764090 -> 1404481 (decompressed 183.8 percent)
[04:35:28] Called DecompressByteArray: compressed_data_size=764090 data_size=1404481, decompressed_data_size=1404481 diff=0
[04:35:28] - Digital signature verified
[04:35:28]
[04:35:28] Project: 6702 (Run 13, Clone 85, Gen 26)
[04:35:28]
[04:35:28] Entering M.D.
[04:35:34] Using Gromacs checkpoints
[04:35:41] CoreStatus = FF (255)
[04:35:41] Sending work to server
[04:35:41] Project: 6702 (Run 13, Clone 85, Gen 26)
[04:35:41] - Error: Could not get length of results file work/wuresults_03.dat
[04:35:41] - Error: Could not read unit 03 file. Removing from queue.
[04:35:41] - Preparing to get new work unit...
[04:35:41] Cleaning up work directory
[04:35:41] + Attempting to get work packet
[04:35:41] Passkey found
[04:35:41] - Connecting to assignment server
[04:35:41] - Successful: assigned to (171.64.65.56).
[04:35:41] + News From Folding@Home: Welcome to Folding@Home
[04:35:42] Loaded queue successfully.
[04:35:43] + Closed connections
[04:35:48]
[04:35:48] + Processing work unit
[04:35:48] Core required: FahCore_a3.exe
[04:35:48] Core found.
[04:35:48] Working on queue slot 04 [August 16 04:35:48 UTC]
[04:35:48] + Working ...
[04:35:48]
[04:35:48] *------------------------------*
[04:35:48] Folding@Home Gromacs SMP Core
[04:35:48] Version 2.22 (Mar 12, 2010)
[04:35:48]
[04:35:48] Preparing to commence simulation
[04:35:48] - Ensuring status. Please wait.
[04:35:58] - Looking at optimizations...
[04:35:58] - Working with standard loops on this execution.
[04:35:58] - Created dyn
[04:35:58] - Files status OK
[04:35:58] - Expanded 764127 -> 1404481 (decompressed 183.8 percent)
[04:35:58] Called DecompressByteArray: compressed_data_size=764127 data_size=1404481, decompressed_data_size=1404481 diff=0
[04:35:58] - Digital signature verified
[04:35:58]
[04:35:58] Project: 6701 (Run 53, Clone 23, Gen 19)
[04:35:58]
[04:35:58] Entering M.D.
[04:36:04] Completed 0 out of 2000000 steps  (0%)
[04:45:26] Completed 20000 out of 2000000 steps  (1%)
[04:55:03] Completed 40000 out of 2000000 steps  (2%)
[05:04:21] Completed 60000 out of 2000000 steps  (3%)
[05:13:39] Completed 80000 out of 2000000 steps  (4%)
[05:22:56] Completed 100000 out of 2000000 steps  (5%)
[05:32:13] Completed 120000 out of 2000000 steps  (6%)
[05:41:30] Completed 140000 out of 2000000 steps  (7%)
[05:50:47] Completed 160000 out of 2000000 steps  (8%)
[06:00:04] Completed 180000 out of 2000000 steps  (9%)
[06:09:21] Completed 200000 out of 2000000 steps  (10%)
[06:18:38] Completed 220000 out of 2000000 steps  (11%)
[06:27:55] Completed 240000 out of 2000000 steps  (12%)
[06:37:12] Completed 260000 out of 2000000 steps  (13%)
[06:46:29] Completed 280000 out of 2000000 steps  (14%)
[06:55:47] Completed 300000 out of 2000000 steps  (15%)
[07:05:08] Completed 320000 out of 2000000 steps  (16%)
[07:14:26] Completed 340000 out of 2000000 steps  (17%)
[07:23:44] Completed 360000 out of 2000000 steps  (18%)
[07:33:06] Completed 380000 out of 2000000 steps  (19%)
[07:42:25] Completed 400000 out of 2000000 steps  (20%)
[07:51:42] Completed 420000 out of 2000000 steps  (21%)
[08:01:01] Completed 440000 out of 2000000 steps  (22%)
[08:10:19] Completed 460000 out of 2000000 steps  (23%)
[08:19:36] Completed 480000 out of 2000000 steps  (24%)
[08:28:55] Completed 500000 out of 2000000 steps  (25%)
[08:38:13] Completed 520000 out of 2000000 steps  (26%)
[08:47:31] Completed 540000 out of 2000000 steps  (27%)
[08:56:49] Completed 560000 out of 2000000 steps  (28%)
[09:06:07] Completed 580000 out of 2000000 steps  (29%)
[09:15:53] Completed 600000 out of 2000000 steps  (30%)
[09:25:22] Completed 620000 out of 2000000 steps  (31%)
[09:34:39] Completed 640000 out of 2000000 steps  (32%)
[09:44:00] Completed 660000 out of 2000000 steps  (33%)
[09:53:16] Completed 680000 out of 2000000 steps  (34%)
[10:02:33] Completed 700000 out of 2000000 steps  (35%)
[10:11:53] Completed 720000 out of 2000000 steps  (36%)
[10:21:14] Completed 740000 out of 2000000 steps  (37%)
[10:30:33] Completed 760000 out of 2000000 steps  (38%)
[10:39:51] Completed 780000 out of 2000000 steps  (39%)
[10:49:08] Completed 800000 out of 2000000 steps  (40%)
[10:58:25] Completed 820000 out of 2000000 steps  (41%)
[11:07:43] Completed 840000 out of 2000000 steps  (42%)
[11:17:03] Completed 860000 out of 2000000 steps  (43%)
[11:26:22] Completed 880000 out of 2000000 steps  (44%)
[11:35:40] Completed 900000 out of 2000000 steps  (45%)
[11:45:01] Completed 920000 out of 2000000 steps  (46%)
[11:54:22] Completed 940000 out of 2000000 steps  (47%)
[12:03:42] Completed 960000 out of 2000000 steps  (48%)
[12:13:02] Completed 980000 out of 2000000 steps  (49%)
[12:22:19] Completed 1000000 out of 2000000 steps  (50%)
[12:31:36] Completed 1020000 out of 2000000 steps  (51%)
[12:40:54] Completed 1040000 out of 2000000 steps  (52%)
[12:50:12] Completed 1060000 out of 2000000 steps  (53%)
[12:59:33] Completed 1080000 out of 2000000 steps  (54%)
[13:08:55] Completed 1100000 out of 2000000 steps  (55%)
[13:18:14] Completed 1120000 out of 2000000 steps  (56%)
[13:27:33] Completed 1140000 out of 2000000 steps  (57%)
[13:36:53] Completed 1160000 out of 2000000 steps  (58%)
[13:46:15] Completed 1180000 out of 2000000 steps  (59%)
[13:55:36] Completed 1200000 out of 2000000 steps  (60%)
[14:04:54] Completed 1220000 out of 2000000 steps  (61%)
[14:14:14] Completed 1240000 out of 2000000 steps  (62%)
[14:23:32] Completed 1260000 out of 2000000 steps  (63%)
[14:32:49] Completed 1280000 out of 2000000 steps  (64%)
[14:42:06] Completed 1300000 out of 2000000 steps  (65%)
[14:51:23] Completed 1320000 out of 2000000 steps  (66%)
[15:00:42] Completed 1340000 out of 2000000 steps  (67%)
[15:10:02] Completed 1360000 out of 2000000 steps  (68%)
[15:19:20] Completed 1380000 out of 2000000 steps  (69%)
[15:28:42] Completed 1400000 out of 2000000 steps  (70%)
[15:37:59] Completed 1420000 out of 2000000 steps  (71%)
[15:47:17] Completed 1440000 out of 2000000 steps  (72%)
[15:56:36] Completed 1460000 out of 2000000 steps  (73%)
[16:05:55] Completed 1480000 out of 2000000 steps  (74%)
[16:15:13] Completed 1500000 out of 2000000 steps  (75%)
[16:24:32] Completed 1520000 out of 2000000 steps  (76%)
[16:33:52] Completed 1540000 out of 2000000 steps  (77%)
[16:43:10] Completed 1560000 out of 2000000 steps  (78%)
[16:52:29] Completed 1580000 out of 2000000 steps  (79%)
[17:01:45] Completed 1600000 out of 2000000 steps  (80%)
[17:11:01] Completed 1620000 out of 2000000 steps  (81%)
[17:20:21] Completed 1640000 out of 2000000 steps  (82%)
[17:29:41] Completed 1660000 out of 2000000 steps  (83%)
[17:39:02] Completed 1680000 out of 2000000 steps  (84%)
[17:48:21] Completed 1700000 out of 2000000 steps  (85%)
[17:57:38] Completed 1720000 out of 2000000 steps  (86%)
[18:06:56] Completed 1740000 out of 2000000 steps  (87%)
[18:16:16] Completed 1760000 out of 2000000 steps  (88%)
[18:25:36] Completed 1780000 out of 2000000 steps  (89%)
[18:34:57] Completed 1800000 out of 2000000 steps  (90%)
[18:44:16] Completed 1820000 out of 2000000 steps  (91%)
[18:53:32] Completed 1840000 out of 2000000 steps  (92%)
[19:02:48] Completed 1860000 out of 2000000 steps  (93%)
[19:12:08] Completed 1880000 out of 2000000 steps  (94%)
[19:21:29] Completed 1900000 out of 2000000 steps  (95%)
[19:30:47] Completed 1920000 out of 2000000 steps  (96%)
[19:40:07] Completed 1940000 out of 2000000 steps  (97%)
[19:49:26] Completed 1960000 out of 2000000 steps  (98%)
[19:58:44] Completed 1980000 out of 2000000 steps  (99%)
[20:08:04] Completed 2000000 out of 2000000 steps  (100%)
[20:08:05] DynamicWrapper: Finished Work Unit: sleep=10000
[20:08:14]
[20:08:14] Finished Work Unit:
[20:08:14] - Reading up to 687408 from "work/wudata_04.trr": Read 687408
[20:08:14] trr file hash check passed.
[20:08:14] - Reading up to 42711264 from "work/wudata_04.xtc": Read 42711264
[20:08:15] xtc file hash check passed.
[20:08:15] edr file hash check passed.
[20:08:15] logfile size: 278946
[20:08:15] Leaving Run
[20:08:17] - Writing 43679954 bytes of core data to disk...
[20:08:17]   ... Done.
[20:08:20] - Shutting down core
[20:08:20]
[20:08:20] Folding@home Core Shutdown: FINISHED_UNIT
[20:08:24] CoreStatus = 64 (100)
[20:08:24] Sending work to server
[20:08:24] Project: 6701 (Run 53, Clone 23, Gen 19)


[20:08:24] + Attempting to send results [August 16 20:08:24 UTC]
[20:10:55] + Results successfully sent
[20:10:55] Thank you for your contribution to Folding@Home.
[20:10:55] + Number of Units Completed: 27

[20:11:00] - Preparing to get new work unit...
[20:11:00] Cleaning up work directory
[20:11:00] + Attempting to get work packet
[20:11:00] Passkey found
[20:11:00] - Connecting to assignment server
[20:11:01] - Successful: assigned to (171.64.65.56).
[20:11:01] + News From Folding@Home: Welcome to Folding@Home
[20:11:01] Loaded queue successfully.
[20:11:03] + Closed connections
[20:11:03]
[20:11:03] + Processing work unit
[20:11:03] Core required: FahCore_a3.exe
[20:11:03] Core found.
[20:11:03] Working on queue slot 05 [August 16 20:11:03 UTC]
[20:11:03] + Working ...
[20:11:03]
[20:11:03] *------------------------------*
[20:11:03] Folding@Home Gromacs SMP Core
[20:11:03] Version 2.22 (Mar 12, 2010)
[20:11:03]
[20:11:03] Preparing to commence simulation
[20:11:03] - Looking at optimizations...
[20:11:03] - Created dyn
[20:11:03] - Files status OK
[20:11:03] - Expanded 763366 -> 1404481 (decompressed 183.9 percent)
[20:11:03] Called DecompressByteArray: compressed_data_size=763366 data_size=1404481, decompressed_data_size=1404481 diff=0
[20:11:03] - Digital signature verified
[20:11:03]
[20:11:03] Project: 6701 (Run 95, Clone 20, Gen 39)
[20:11:03]
[20:11:03] Assembly optimizations on if available.
[20:11:03] Entering M.D.
[20:11:13] CoreStatus = FF (255)
[20:11:13] Sending work to server
[20:11:13] Project: 6701 (Run 95, Clone 20, Gen 39)
[20:11:13] - Error: Could not get length of results file work/wuresults_05.dat
[20:11:13] - Error: Could not read unit 05 file. Removing from queue.
[20:11:13] - Preparing to get new work unit...
[20:11:13] Cleaning up work directory
[20:11:14] + Attempting to get work packet
[20:11:14] Passkey found
[20:11:14] - Connecting to assignment server
[20:11:14] - Successful: assigned to (171.64.65.56).
[20:11:14] + News From Folding@Home: Welcome to Folding@Home
[20:11:15] Loaded queue successfully.
[20:11:16] + Closed connections
[20:11:21]
[20:11:21] + Processing work unit
[20:11:21] Core required: FahCore_a3.exe
[20:11:21] Core found.
[20:11:21] Working on queue slot 06 [August 16 20:11:21 UTC]
[20:11:21] + Working ...
[20:11:21]
[20:11:21] *------------------------------*
[20:11:21] Folding@Home Gromacs SMP Core
[20:11:21] Version 2.22 (Mar 12, 2010)
[20:11:21]
[20:11:21] Preparing to commence simulation
[20:11:21] - Ensuring status. Please wait.
[20:11:31] - Looking at optimizations...
[20:11:31] - Working with standard loops on this execution.
[20:11:31] - Created dyn
[20:11:31] - Files status OK
[20:11:31] - Expanded 763934 -> 1404481 (decompressed 183.8 percent)
[20:11:31] Called DecompressByteArray: compressed_data_size=763934 data_size=1404481, decompressed_data_size=1404481 diff=0
[20:11:31] - Digital signature verified
[20:11:31]
[20:11:31] Project: 6701 (Run 93, Clone 4, Gen 49)
[20:11:31]
[20:11:31] Entering M.D.
[20:11:37] Completed 0 out of 2000000 steps  (0%)
[20:20:57] Completed 20000 out of 2000000 steps  (1%)
[20:30:20] Completed 40000 out of 2000000 steps  (2%)
[20:39:40] Completed 60000 out of 2000000 steps  (3%)
[20:48:59] Completed 80000 out of 2000000 steps  (4%)
[20:58:18] Completed 100000 out of 2000000 steps  (5%)
[21:07:41] Completed 120000 out of 2000000 steps  (6%)
[21:17:00] Completed 140000 out of 2000000 steps  (7%)
[21:26:17] Completed 160000 out of 2000000 steps  (8%)
[21:36:02] Completed 180000 out of 2000000 steps  (9%)
[21:46:05] Completed 200000 out of 2000000 steps  (10%)
[21:55:32] Completed 220000 out of 2000000 steps  (11%)
[22:04:58] Completed 240000 out of 2000000 steps  (12%)
[22:14:24] Completed 260000 out of 2000000 steps  (13%)
[22:23:52] Completed 280000 out of 2000000 steps  (14%)
[22:33:21] Completed 300000 out of 2000000 steps  (15%)
[22:42:49] Completed 320000 out of 2000000 steps  (16%)
[22:52:17] Completed 340000 out of 2000000 steps  (17%)
[23:01:43] Completed 360000 out of 2000000 steps  (18%)
[23:11:10] Completed 380000 out of 2000000 steps  (19%)
[23:20:36] Completed 400000 out of 2000000 steps  (20%)
[23:30:04] Completed 420000 out of 2000000 steps  (21%)
[23:39:30] Completed 440000 out of 2000000 steps  (22%)
[23:48:54] Completed 460000 out of 2000000 steps  (23%)
[23:58:20] Completed 480000 out of 2000000 steps  (24%)
[00:07:47] Completed 500000 out of 2000000 steps  (25%)
[00:17:11] Completed 520000 out of 2000000 steps  (26%)
[00:26:37] Completed 540000 out of 2000000 steps  (27%)
[00:36:04] Completed 560000 out of 2000000 steps  (28%)
[00:45:31] Completed 580000 out of 2000000 steps  (29%)
[00:54:57] Completed 600000 out of 2000000 steps  (30%)
[01:04:23] Completed 620000 out of 2000000 steps  (31%)
[01:13:48] Completed 640000 out of 2000000 steps  (32%)
[01:23:11] Completed 660000 out of 2000000 steps  (33%)
[01:32:37] Completed 680000 out of 2000000 steps  (34%)
[01:42:43] Completed 700000 out of 2000000 steps  (35%)
[01:52:49] Completed 720000 out of 2000000 steps  (36%)
[02:03:00] Completed 740000 out of 2000000 steps  (37%)
[02:12:54] Completed 760000 out of 2000000 steps  (38%)
[02:22:41] Completed 780000 out of 2000000 steps  (39%)
[02:32:28] Completed 800000 out of 2000000 steps  (40%)
[02:42:11] Completed 820000 out of 2000000 steps  (41%)
[02:51:42] Completed 840000 out of 2000000 steps  (42%)
[03:01:31] Completed 860000 out of 2000000 steps  (43%)
[03:11:02] Completed 880000 out of 2000000 steps  (44%)
[03:20:38] Completed 900000 out of 2000000 steps  (45%)
[03:30:04] Completed 920000 out of 2000000 steps  (46%)
[03:39:31] Completed 940000 out of 2000000 steps  (47%)
[03:48:58] Completed 960000 out of 2000000 steps  (48%)
[03:58:25] Completed 980000 out of 2000000 steps  (49%)
[04:07:52] Completed 1000000 out of 2000000 steps  (50%)
[04:17:19] Completed 1020000 out of 2000000 steps  (51%)
[04:26:45] Completed 1040000 out of 2000000 steps  (52%)
[04:36:10] Completed 1060000 out of 2000000 steps  (53%)
[04:45:37] Completed 1080000 out of 2000000 steps  (54%)
[04:55:02] Completed 1100000 out of 2000000 steps  (55%)
[05:04:30] Completed 1120000 out of 2000000 steps  (56%)
[05:13:56] Completed 1140000 out of 2000000 steps  (57%)
[05:23:23] Completed 1160000 out of 2000000 steps  (58%)
[05:32:51] Completed 1180000 out of 2000000 steps  (59%)
[05:42:20] Completed 1200000 out of 2000000 steps  (60%)
[05:51:47] Completed 1220000 out of 2000000 steps  (61%)
[06:01:14] Completed 1240000 out of 2000000 steps  (62%)
[06:10:42] Completed 1260000 out of 2000000 steps  (63%)
[06:20:06] Completed 1280000 out of 2000000 steps  (64%)
[06:29:34] Completed 1300000 out of 2000000 steps  (65%)
[06:39:01] Completed 1320000 out of 2000000 steps  (66%)
[06:48:26] Completed 1340000 out of 2000000 steps  (67%)
[06:57:52] Completed 1360000 out of 2000000 steps  (68%)
[07:07:19] Completed 1380000 out of 2000000 steps  (69%)
[07:16:46] Completed 1400000 out of 2000000 steps  (70%)
[07:26:13] Completed 1420000 out of 2000000 steps  (71%)
[07:35:40] Completed 1440000 out of 2000000 steps  (72%)
[07:45:07] Completed 1460000 out of 2000000 steps  (73%)
[07:54:30] Completed 1480000 out of 2000000 steps  (74%)
[08:03:54] Completed 1500000 out of 2000000 steps  (75%)
[08:13:18] Completed 1520000 out of 2000000 steps  (76%)
[08:22:45] Completed 1540000 out of 2000000 steps  (77%)
[08:32:10] Completed 1560000 out of 2000000 steps  (78%)
[08:41:37] Completed 1580000 out of 2000000 steps  (79%)
[08:51:01] Completed 1600000 out of 2000000 steps  (80%)
[09:00:25] Completed 1620000 out of 2000000 steps  (81%)
[09:09:53] Completed 1640000 out of 2000000 steps  (82%)
[09:20:18] Completed 1660000 out of 2000000 steps  (83%)
[09:29:43] Completed 1680000 out of 2000000 steps  (84%)
[09:39:07] Completed 1700000 out of 2000000 steps  (85%)
[09:48:38] Completed 1720000 out of 2000000 steps  (86%)
[09:58:00] Completed 1740000 out of 2000000 steps  (87%)
[10:07:24] Completed 1760000 out of 2000000 steps  (88%)
[10:16:50] Completed 1780000 out of 2000000 steps  (89%)
[10:26:14] Completed 1800000 out of 2000000 steps  (90%)
[10:35:40] Completed 1820000 out of 2000000 steps  (91%)
[10:45:03] Completed 1840000 out of 2000000 steps  (92%)
[10:54:29] Completed 1860000 out of 2000000 steps  (93%)
[11:03:54] Completed 1880000 out of 2000000 steps  (94%)
[11:13:18] Completed 1900000 out of 2000000 steps  (95%)
[11:22:46] Completed 1920000 out of 2000000 steps  (96%)
[11:32:13] Completed 1940000 out of 2000000 steps  (97%)
[11:41:40] Completed 1960000 out of 2000000 steps  (98%)
[11:51:04] Completed 1980000 out of 2000000 steps  (99%)
[12:00:30] Completed 2000000 out of 2000000 steps  (100%)
[12:00:30] DynamicWrapper: Finished Work Unit: sleep=10000
[12:00:40]
[12:00:40] Finished Work Unit:
[12:00:40] - Reading up to 687408 from "work/wudata_06.trr": Read 687408
[12:00:40] trr file hash check passed.
[12:00:40] - Reading up to 42636788 from "work/wudata_06.xtc": Read 42636788
[12:00:40] xtc file hash check passed.
[12:00:40] edr file hash check passed.
[12:00:40] logfile size: 278943
[12:00:40] Leaving Run
[12:00:43] - Writing 43605475 bytes of core data to disk...
[12:00:43]   ... Done.
[12:00:49] - Shutting down core
[12:00:49]
[12:00:49] Folding@home Core Shutdown: FINISHED_UNIT
[12:00:52] CoreStatus = 64 (100)
[12:00:52] Sending work to server
[12:00:52] Project: 6701 (Run 93, Clone 4, Gen 49)


[12:00:52] + Attempting to send results [August 17 12:00:52 UTC]
[12:00:53] - Couldn't send HTTP request to server
[12:00:53]   (Got status 503)
[12:00:53] + Could not connect to Work Server (results)
[12:00:53]     (171.64.65.56:8080)
[12:00:53] + Retrying using alternative port
[12:00:53] - Couldn't send HTTP request to server
[12:00:53]   (Got status 503)
[12:00:53] + Could not connect to Work Server (results)
[12:00:53]     (171.64.65.56:80)
[12:00:53] - Error: Could not transmit unit 06 (completed August 17) to work server.
[12:00:53]   Keeping unit 06 in queue.
[12:00:53] Project: 6701 (Run 93, Clone 4, Gen 49)


[12:00:53] + Attempting to send results [August 17 12:00:53 UTC]
[12:00:53] - Couldn't send HTTP request to server
[12:00:53]   (Got status 503)
[12:00:53] + Could not connect to Work Server (results)
[12:00:53]     (171.64.65.56:8080)
[12:00:53] + Retrying using alternative port
[12:00:53] - Couldn't send HTTP request to server
[12:00:53]   (Got status 503)
[12:00:53] + Could not connect to Work Server (results)
[12:00:53]     (171.64.65.56:80)
[12:00:53] - Error: Could not transmit unit 06 (completed August 17) to work server.


[12:00:53] + Attempting to send results [August 17 12:00:53 UTC]
[12:01:14] - Couldn't send HTTP request to server
[12:01:14] + Could not connect to Work Server (results)
[12:01:14]     (171.67.108.25:8080)
[12:01:14] + Retrying using alternative port
[12:01:14] - Couldn't send HTTP request to server
[12:01:14]   (Got status 503)
[12:01:14] + Could not connect to Work Server (results)
[12:01:14]     (171.67.108.25:80)
[12:01:14]   Could not transmit unit 06 to Collection server; keeping in queue.
[12:01:14] - Preparing to get new work unit...
[12:01:14] Cleaning up work directory
[12:01:15] + Attempting to get work packet
[12:01:15] Passkey found
[12:01:15] - Connecting to assignment server
[12:01:15] - Successful: assigned to (171.64.65.56).
[12:01:15] + News From Folding@Home: Welcome to Folding@Home
[12:01:15] Loaded queue successfully.
[12:01:15] - Couldn't send HTTP request to server
[12:01:15]   (Got status 503)
[12:01:15] + Could not connect to Work Server
[12:01:15] - Attempt #1  to get work failed, and no other work to do.
Waiting before retry.
[12:01:27] + Attempting to get work packet
[12:01:27] Passkey found
[12:01:27] - Connecting to assignment server
[12:01:27] - Successful: assigned to (171.64.65.56).
[12:01:27] + News From Folding@Home: Welcome to Folding@Home
[12:01:28] Loaded queue successfully.
[12:01:28] - Couldn't send HTTP request to server
[12:01:28]   (Got status 503)
[12:01:28] + Could not connect to Work Server
[12:01:28] - Attempt #2  to get work failed, and no other work to do.
Waiting before retry.
[12:01:42] + Attempting to get work packet
[12:01:42] Passkey found
[12:01:42] - Connecting to assignment server
[12:01:43] - Successful: assigned to (171.64.65.56).
[12:01:43] + News From Folding@Home: Welcome to Folding@Home
[12:01:43] Loaded queue successfully.
[12:01:43] - Couldn't send HTTP request to server
[12:01:43]   (Got status 503)
[12:01:43] + Could not connect to Work Server
[12:01:43] - Attempt #3  to get work failed, and no other work to do.
Waiting before retry.
[12:02:07] + Attempting to get work packet
[12:02:07] Passkey found
[12:02:07] - Connecting to assignment server
[12:02:08] - Successful: assigned to (171.64.65.56).
[12:02:08] + News From Folding@Home: Welcome to Folding@Home
[12:02:08] Loaded queue successfully.
[12:02:29] - Couldn't send HTTP request to server
[12:02:29] + Could not connect to Work Server
[12:02:29] - Attempt #4  to get work failed, and no other work to do.
Waiting before retry.
[12:03:14] + Attempting to get work packet
[12:03:14] Passkey found
[12:03:14] - Connecting to assignment server
[12:03:14] - Successful: assigned to (171.64.65.56).
[12:03:14] + News From Folding@Home: Welcome to Folding@Home
[12:03:14] Loaded queue successfully.
[12:03:14] - Couldn't send HTTP request to server
[12:03:14]   (Got status 503)
[12:03:14] + Could not connect to Work Server
[12:03:14] - Attempt #5  to get work failed, and no other work to do.
Waiting before retry.
[12:04:38] + Attempting to get work packet
[12:04:38] Passkey found
[12:04:38] - Connecting to assignment server
[12:04:39] - Successful: assigned to (171.64.65.56).
[12:04:39] + News From Folding@Home: Welcome to Folding@Home
[12:04:39] Loaded queue successfully.
[12:04:39] - Couldn't send HTTP request to server
[12:04:39]   (Got status 503)
[12:04:39] + Could not connect to Work Server
[12:04:39] - Attempt #6  to get work failed, and no other work to do.
Waiting before retry.
[12:07:29] + Attempting to get work packet
[12:07:29] Passkey found
[12:07:29] - Connecting to assignment server
[12:07:30] - Successful: assigned to (171.64.65.56).
[12:07:30] + News From Folding@Home: Welcome to Folding@Home
[12:07:30] Loaded queue successfully.
[12:07:30] - Couldn't send HTTP request to server
[12:07:30]   (Got status 503)
[12:07:30] + Could not connect to Work Server
[12:07:30] - Attempt #7  to get work failed, and no other work to do.
Waiting before retry.
[12:13:03] + Attempting to get work packet
[12:13:03] Passkey found
[12:13:03] - Connecting to assignment server
[12:13:04] - Successful: assigned to (171.64.65.56).
[12:13:04] + News From Folding@Home: Welcome to Folding@Home
[12:13:04] Loaded queue successfully.
[12:13:05] Project: 6701 (Run 93, Clone 4, Gen 49)


[12:13:05] + Attempting to send results [August 17 12:13:05 UTC]
[12:15:33] + Results successfully sent
[12:15:33] Thank you for your contribution to Folding@Home.
[12:15:33] + Number of Units Completed: 28

[12:15:35] + Closed connections
[12:15:35]
[12:15:35] + Processing work unit
[12:15:35] Core required: FahCore_a3.exe
[12:15:35] Core found.
[12:15:35] Working on queue slot 07 [August 17 12:15:35 UTC]
[12:15:35] + Working ...
[12:15:35]
[12:15:35] *------------------------------*
[12:15:35] Folding@Home Gromacs SMP Core
[12:15:35] Version 2.22 (Mar 12, 2010)
[12:15:35]
[12:15:35] Preparing to commence simulation
[12:15:35] - Looking at optimizations...
[12:15:35] - Created dyn
[12:15:35] - Files status OK
[12:15:35] - Expanded 764140 -> 1404481 (decompressed 183.7 percent)
[12:15:35] Called DecompressByteArray: compressed_data_size=764140 data_size=1404481, decompressed_data_size=1404481 diff=0
[12:15:35] - Digital signature verified
[12:15:35]
[12:15:35] Project: 6702 (Run 6, Clone 82, Gen 31)
[12:15:35]
[12:15:35] Assembly optimizations on if available.
[12:15:35] Entering M.D.
[12:15:46] CoreStatus = FF (255)
[12:15:46] Sending work to server
[12:15:46] Project: 6702 (Run 6, Clone 82, Gen 31)
[12:15:46] - Error: Could not get length of results file work/wuresults_07.dat
[12:15:46] - Error: Could not read unit 07 file. Removing from queue.
[12:15:46] - Preparing to get new work unit...
[12:15:46] Cleaning up work directory
[12:15:46] + Attempting to get work packet
[12:15:46] Passkey found
[12:15:46] - Connecting to assignment server
[12:15:46] - Successful: assigned to (171.64.65.56).
[12:15:46] + News From Folding@Home: Welcome to Folding@Home
[12:15:47] Loaded queue successfully.
[12:15:47] - Couldn't send HTTP request to server
[12:15:47]   (Got status 503)
[12:15:47] + Could not connect to Work Server
[12:15:47] - Attempt #1  to get work failed, and no other work to do.
Waiting before retry.
[12:16:00] + Attempting to get work packet
[12:16:00] Passkey found
[12:16:00] - Connecting to assignment server
[12:16:00] - Successful: assigned to (171.64.65.56).
[12:16:00] + News From Folding@Home: Welcome to Folding@Home
[12:16:00] Loaded queue successfully.
[12:16:01] - Couldn't send HTTP request to server
[12:16:01]   (Got status 503)
[12:16:01] + Could not connect to Work Server
[12:16:01] - Attempt #2  to get work failed, and no other work to do.
Waiting before retry.
[12:16:12] + Attempting to get work packet
[12:16:12] Passkey found
[12:16:12] - Connecting to assignment server
[12:16:12] - Successful: assigned to (171.64.65.56).
[12:16:12] + News From Folding@Home: Welcome to Folding@Home
[12:16:12] Loaded queue successfully.
[12:16:12] - Couldn't send HTTP request to server
[12:16:12]   (Got status 503)
[12:16:12] + Could not connect to Work Server
[12:16:12] - Attempt #3  to get work failed, and no other work to do.
Waiting before retry.
[12:16:38] + Attempting to get work packet
[12:16:38] Passkey found
[12:16:38] - Connecting to assignment server
[12:16:38] - Successful: assigned to (171.64.65.56).
[12:16:38] + News From Folding@Home: Welcome to Folding@Home
[12:16:38] Loaded queue successfully.
[12:16:38] - Couldn't send HTTP request to server
[12:16:38]   (Got status 503)
[12:16:38] + Could not connect to Work Server
[12:16:38] - Attempt #4  to get work failed, and no other work to do.
Waiting before retry.
[12:17:33] + Attempting to get work packet
[12:17:33] Passkey found
[12:17:33] - Connecting to assignment server
[12:17:33] - Successful: assigned to (171.64.65.56).
[12:17:33] + News From Folding@Home: Welcome to Folding@Home
[12:17:33] Loaded queue successfully.
[12:17:33] - Couldn't send HTTP request to server
[12:17:33]   (Got status 503)
[12:17:33] + Could not connect to Work Server
[12:17:33] - Attempt #5  to get work failed, and no other work to do.
Waiting before retry.
[12:19:08] + Attempting to get work packet
[12:19:08] Passkey found
[12:19:08] - Connecting to assignment server
[12:19:08] - Successful: assigned to (171.64.65.56).
[12:19:08] + News From Folding@Home: Welcome to Folding@Home
[12:19:09] Loaded queue successfully.
[12:19:09] - Couldn't send HTTP request to server
[12:19:09]   (Got status 503)
[12:19:09] + Could not connect to Work Server
[12:19:09] - Attempt #6  to get work failed, and no other work to do.
Waiting before retry.
[12:22:00] + Attempting to get work packet
[12:22:00] Passkey found
[12:22:00] - Connecting to assignment server
[12:22:01] - Successful: assigned to (171.64.65.56).
[12:22:01] + News From Folding@Home: Welcome to Folding@Home
[12:22:01] Loaded queue successfully.
[12:22:01] - Couldn't send HTTP request to server
[12:22:01]   (Got status 503)
[12:22:01] + Could not connect to Work Server
[12:22:01] - Attempt #7  to get work failed, and no other work to do.
Waiting before retry.
[12:27:29] + Attempting to get work packet
[12:27:29] Passkey found
[12:27:29] - Connecting to assignment server
[12:27:29] - Successful: assigned to (171.64.65.56).
[12:27:29] + News From Folding@Home: Welcome to Folding@Home
[12:27:29] Loaded queue successfully.
[12:27:31] + Closed connections
[12:27:36]
[12:27:36] + Processing work unit
[12:27:36] Core required: FahCore_a3.exe
[12:27:36] Core found.
[12:27:36] Working on queue slot 08 [August 17 12:27:36 UTC]
[12:27:36] + Working ...
[12:27:36]
[12:27:36] *------------------------------*
[12:27:36] Folding@Home Gromacs SMP Core
[12:27:36] Version 2.22 (Mar 12, 2010)
[12:27:36]
[12:27:36] Preparing to commence simulation
[12:27:36] - Ensuring status. Please wait.
[12:27:46] - Looking at optimizations...
[12:27:46] - Working with standard loops on this execution.
[12:27:46] - Created dyn
[12:27:46] - Files status OK
[12:27:46] - Expanded 763936 -> 1404481 (decompressed 183.8 percent)
[12:27:46] Called DecompressByteArray: compressed_data_size=763936 data_size=1404481, decompressed_data_size=1404481 diff=0
[12:27:46] - Digital signature verified
[12:27:46]
[12:27:46] Project: 6702 (Run 10, Clone 11, Gen 27)
[12:27:46]
[12:27:46] Entering M.D.
[12:27:52] Completed 0 out of 2000000 steps  (0%)
[12:37:17] Completed 20000 out of 2000000 steps  (1%)
[12:46:42] Completed 40000 out of 2000000 steps  (2%)
[12:56:05] Completed 60000 out of 2000000 steps  (3%)
[13:05:27] Completed 80000 out of 2000000 steps  (4%)
[13:14:51] Completed 100000 out of 2000000 steps  (5%)
[13:24:14] Completed 120000 out of 2000000 steps  (6%)
[13:33:36] Completed 140000 out of 2000000 steps  (7%)
[13:43:01] Completed 160000 out of 2000000 steps  (8%)
[13:53:35] Completed 180000 out of 2000000 steps  (9%)
[14:03:29] Completed 200000 out of 2000000 steps  (10%)
[14:13:24] Completed 220000 out of 2000000 steps  (11%)
[14:23:18] Completed 240000 out of 2000000 steps  (12%)
[14:33:00] Completed 260000 out of 2000000 steps  (13%)
[14:42:23] Completed 280000 out of 2000000 steps  (14%)
[14:51:47] Completed 300000 out of 2000000 steps  (15%)
[15:01:12] Completed 320000 out of 2000000 steps  (16%)
[15:10:37] Completed 340000 out of 2000000 steps  (17%)
[15:20:00] Completed 360000 out of 2000000 steps  (18%)
[15:29:22] Completed 380000 out of 2000000 steps  (19%)
[15:38:47] Completed 400000 out of 2000000 steps  (20%)
[15:48:12] Completed 420000 out of 2000000 steps  (21%)
[15:57:35] Completed 440000 out of 2000000 steps  (22%)
[16:06:59] Completed 460000 out of 2000000 steps  (23%)
[16:16:25] Completed 480000 out of 2000000 steps  (24%)
[16:25:52] Completed 500000 out of 2000000 steps  (25%)
[16:35:27] Completed 520000 out of 2000000 steps  (26%)
[16:44:53] Completed 540000 out of 2000000 steps  (27%)
[16:54:18] Completed 560000 out of 2000000 steps  (28%)
[17:03:43] Completed 580000 out of 2000000 steps  (29%)
[17:13:07] Completed 600000 out of 2000000 steps  (30%)
[17:22:31] Completed 620000 out of 2000000 steps  (31%)
[17:31:57] Completed 640000 out of 2000000 steps  (32%)
[17:41:22] Completed 660000 out of 2000000 steps  (33%)
[17:50:47] Completed 680000 out of 2000000 steps  (34%)
[18:00:09] Completed 700000 out of 2000000 steps  (35%)
[18:09:33] Completed 720000 out of 2000000 steps  (36%)
[18:18:56] Completed 740000 out of 2000000 steps  (37%)
[18:28:18] Completed 760000 out of 2000000 steps  (38%)
[18:37:42] Completed 780000 out of 2000000 steps  (39%)
[18:47:06] Completed 800000 out of 2000000 steps  (40%)
[18:56:31] Completed 820000 out of 2000000 steps  (41%)
[19:05:55] Completed 840000 out of 2000000 steps  (42%)
[19:15:20] Completed 860000 out of 2000000 steps  (43%)
[19:24:45] Completed 880000 out of 2000000 steps  (44%)
[19:34:09] Completed 900000 out of 2000000 steps  (45%)
[19:43:33] Completed 920000 out of 2000000 steps  (46%)
[19:52:55] Completed 940000 out of 2000000 steps  (47%)
[20:02:20] Completed 960000 out of 2000000 steps  (48%)
[20:11:43] Completed 980000 out of 2000000 steps  (49%)
[20:21:08] Completed 1000000 out of 2000000 steps  (50%)
[20:30:32] Completed 1020000 out of 2000000 steps  (51%)
[20:39:55] Completed 1040000 out of 2000000 steps  (52%)
[20:49:18] Completed 1060000 out of 2000000 steps  (53%)
[20:58:41] Completed 1080000 out of 2000000 steps  (54%)
[21:08:04] Completed 1100000 out of 2000000 steps  (55%)
[21:17:27] Completed 1120000 out of 2000000 steps  (56%)
[21:26:53] Completed 1140000 out of 2000000 steps  (57%)
[21:36:18] Completed 1160000 out of 2000000 steps  (58%)
[21:45:42] Completed 1180000 out of 2000000 steps  (59%)
[21:55:05] Completed 1200000 out of 2000000 steps  (60%)
[22:04:27] Completed 1220000 out of 2000000 steps  (61%)
[22:13:50] Completed 1240000 out of 2000000 steps  (62%)
[22:23:16] Completed 1260000 out of 2000000 steps  (63%)
[22:32:39] Completed 1280000 out of 2000000 steps  (64%)
[22:42:05] Completed 1300000 out of 2000000 steps  (65%)
[22:51:28] Completed 1320000 out of 2000000 steps  (66%)
[23:00:52] Completed 1340000 out of 2000000 steps  (67%)
[23:10:17] Completed 1360000 out of 2000000 steps  (68%)
[23:19:41] Completed 1380000 out of 2000000 steps  (69%)
[23:29:05] Completed 1400000 out of 2000000 steps  (70%)
[23:38:29] Completed 1420000 out of 2000000 steps  (71%)
[23:47:54] Completed 1440000 out of 2000000 steps  (72%)
[23:57:17] Completed 1460000 out of 2000000 steps  (73%)
[00:06:44] Completed 1480000 out of 2000000 steps  (74%)
[00:16:08] Completed 1500000 out of 2000000 steps  (75%)
[00:25:33] Completed 1520000 out of 2000000 steps  (76%)
[00:34:57] Completed 1540000 out of 2000000 steps  (77%)
[00:44:22] Completed 1560000 out of 2000000 steps  (78%)
[00:53:47] Completed 1580000 out of 2000000 steps  (79%)
[01:03:11] Completed 1600000 out of 2000000 steps  (80%)
[01:12:35] Completed 1620000 out of 2000000 steps  (81%)
[01:21:58] Completed 1640000 out of 2000000 steps  (82%)
[01:31:22] Completed 1660000 out of 2000000 steps  (83%)
[01:40:48] Completed 1680000 out of 2000000 steps  (84%)
[01:51:00] Completed 1700000 out of 2000000 steps  (85%)
[02:01:00] Completed 1720000 out of 2000000 steps  (86%)
[02:10:56] Completed 1740000 out of 2000000 steps  (87%)
Image
2 - SM H8QGi-F AMD 6xxx=112 cores @ 3.2 & 3.9Ghz
5 - SM X9QRI-f+ Intel 4650 = 320 cores @ 3.15Ghz
2 - I7 980X 4.4Ghz 2-GTX680
1 - 2700k 4.4Ghz GTX680
Total = 464 cores folding
User avatar
Grandpa_01
 
Posts: 1757
Joined: Wed Mar 04, 2009 7:36 am

Re: 171.64.65.56 ???

Postby bruce » Wed Aug 18, 2010 4:18 am

With regard to the specific WU: Project: 6702 (Run 13, Clone 85, Gen 26) has not been returned by anyone.

Two observations:
1) Either your observed pattern applies to (A) everyone, or (B) to only those with some particular configuration or (C) only to you. Figuring out which is true would be a first step.
2) I don't have a clue how to figure out some type of cause that would create such a pattern.
bruce
 
Posts: 22694
Joined: Thu Nov 29, 2007 10:13 pm
Location: So. Cal.

171.64.65.56/171.67.108.25

Postby dchamberlain » Wed Aug 18, 2010 2:33 pm

Are still not reliably accepting finished work units...

Code: Select all
[12:30:14] Completed 2000000 out of 2000000 steps  (100%)
[12:30:14] DynamicWrapper: Finished Work Unit: sleep=10000
[12:30:24]
[12:30:24] Finished Work Unit:
[12:30:24] - Reading up to 687408 from "work/wudata_01.trr": Read 687408
[12:30:24] trr file hash check passed.
[12:30:24] - Reading up to 42672496 from "work/wudata_01.xtc": Read 42672496
[12:30:25] xtc file hash check passed.
[12:30:25] edr file hash check passed.
[12:30:25] logfile size: 296659
[12:30:25] Leaving Run
[12:30:27] - Writing 43658899 bytes of core data to disk...
[12:30:28]   ... Done.
[12:30:32] - Shutting down core
[12:30:32]
[12:30:32] Folding@home Core Shutdown: FINISHED_UNIT
[12:30:34] CoreStatus = 64 (100)
[12:30:34] Sending work to server
[12:30:34] Project: 6702 (Run 8, Clone 28, Gen 22)


[12:30:34] + Attempting to send results [August 18 12:30:34 UTC]
[12:30:34] - Couldn't send HTTP request to server
[12:30:34]   (Got status 503)
[12:30:34] + Could not connect to Work Server (results)
[12:30:34]     (171.64.65.56:8080)
[12:30:34] + Retrying using alternative port
[12:30:35] - Couldn't send HTTP request to server
[12:30:35]   (Got status 503)
[12:30:35] + Could not connect to Work Server (results)
[12:30:35]     (171.64.65.56:80)
[12:30:35] - Error: Could not transmit unit 01 (completed August 18) to work server.
[12:30:35]   Keeping unit 01 in queue.
[12:30:35] Project: 6702 (Run 8, Clone 28, Gen 22)


[12:30:35] + Attempting to send results [August 18 12:30:35 UTC]
[12:30:35] - Couldn't send HTTP request to server
[12:30:35]   (Got status 503)
[12:30:35] + Could not connect to Work Server (results)
[12:30:35]     (171.64.65.56:8080)
[12:30:35] + Retrying using alternative port
[12:30:35] - Couldn't send HTTP request to server
[12:30:35]   (Got status 503)
[12:30:35] + Could not connect to Work Server (results)
[12:30:35]     (171.64.65.56:80)
[12:30:35] - Error: Could not transmit unit 01 (completed August 18) to work server.


[12:30:35] + Attempting to send results [August 18 12:30:35 UTC]
[12:30:35] - Couldn't send HTTP request to server
[12:30:35]   (Got status 503)
[12:30:35] + Could not connect to Work Server (results)
[12:30:35]     (171.67.108.25:8080)
[12:30:35] + Retrying using alternative port
[12:30:35] - Couldn't send HTTP request to server
[12:30:35]   (Got status 503)
[12:30:35] + Could not connect to Work Server (results)
[12:30:35]     (171.67.108.25:80)
[12:30:35]   Could not transmit unit 01 to Collection server; keeping in queue.
[12:30:35] - Preparing to get new work unit...
[12:30:35] Cleaning up work directory
[12:30:35] + Attempting to get work packet
[12:30:35] Passkey found
[12:30:35] - Connecting to assignment server
[12:30:36] - Successful: assigned to (171.64.65.54).
[12:30:36] + News From Folding@Home: Welcome to Folding@Home
[12:30:36] Loaded queue successfully.
[12:30:46] Project: 6702 (Run 8, Clone 28, Gen 22)


[12:30:46] + Attempting to send results [August 18 12:30:46 UTC]
[12:30:46] - Couldn't send HTTP request to server
[12:30:46]   (Got status 503)
[12:30:46] + Could not connect to Work Server (results)
[12:30:46]     (171.64.65.56:8080)
[12:30:46] + Retrying using alternative port
[12:30:46] - Couldn't send HTTP request to server
[12:30:46]   (Got status 503)
[12:30:46] + Could not connect to Work Server (results)
[12:30:46]     (171.64.65.56:80)
[12:30:46] - Error: Could not transmit unit 01 (completed August 18) to work server.


[12:30:46] + Attempting to send results [August 18 12:30:46 UTC]
[12:30:47] - Couldn't send HTTP request to server
[12:30:47]   (Got status 503)
[12:30:47] + Could not connect to Work Server (results)
[12:30:47]     (171.67.108.25:8080)
[12:30:47] + Retrying using alternative port
[12:30:47] - Couldn't send HTTP request to server
[12:30:47]   (Got status 503)
[12:30:47] + Could not connect to Work Server (results)
[12:30:47]     (171.67.108.25:80)
[12:30:47]   Could not transmit unit 01 to Collection server; keeping in queue.
[12:30:47] + Closed connections
[12:30:47]
[12:30:47] + Processing work unit
[12:30:47] Core required: FahCore_a3.exe
[12:30:47] Core found.
[12:30:47] Working on queue slot 02 [August 18 12:30:47 UTC]
[12:30:47] + Working ...
[12:30:47]
[12:30:47] *------------------------------*
[12:30:47] Folding@Home Gromacs SMP Core
[12:30:47] Version 2.22 (Mar 12, 2010)
[12:30:47]
[12:30:47] Preparing to commence simulation
[12:30:47] - Looking at optimizations...
[12:30:47] - Created dyn
[12:30:47] - Files status OK
[12:30:47] - Expanded 1762491 -> 2247349 (decompressed 127.5 percent)
[12:30:47] Called DecompressByteArray: compressed_data_size=1762491 data_size=2247349, decompressed_data_size=2247349 diff=0
[12:30:47] - Digital signature verified
[12:30:47]
[12:30:47] Project: 6077 (Run 0, Clone 56, Gen 112)
[12:30:47]
[12:30:47] Assembly optimizations on if available.
[12:30:47] Entering M.D.
[12:30:54] Completed 0 out of 500000 steps  (0%)
[12:38:16] Completed 5000 out of 500000 steps  (1%)
[12:45:39] Completed 10000 out of 500000 steps  (2%)
[12:52:59] Completed 15000 out of 500000 steps  (3%)
[13:00:22] Completed 20000 out of 500000 steps  (4%)
[13:07:46] Completed 25000 out of 500000 steps  (5%)
[13:15:09] Completed 30000 out of 500000 steps  (6%)
[13:22:31] Completed 35000 out of 500000 steps  (7%)
[13:29:53] Completed 40000 out of 500000 steps  (8%)
[13:37:16] Completed 45000 out of 500000 steps  (9%)
[13:44:37] Completed 50000 out of 500000 steps  (10%)
[13:51:58] Completed 55000 out of 500000 steps  (11%)
[13:59:18] Completed 60000 out of 500000 steps  (12%)
[14:06:42] Completed 65000 out of 500000 steps  (13%)
[14:14:04] Completed 70000 out of 500000 steps  (14%)

Folding@Home Client Shutdown at user request.

Folding@Home Client Shutdown.


--- Opening Log file [August 18 14:26:17 UTC]


# Windows SMP Console Edition #################################################
###############################################################################

                       Folding@Home Client Version 6.29

                          http://folding.stanford.edu

###############################################################################
###############################################################################

Launch directory: C:\Program Files\FAH
Executable: fah6
Arguments: -smp -deino

[14:26:17] - Ask before connecting: No
[14:26:17] - User name: dchamberlain (Team 53449)
[14:26:17] - User ID: 46E66ED264BF5ECC
[14:26:17] - Machine ID: 5
[14:26:17]
[14:26:18] Loaded queue successfully.
[14:26:18]
[14:26:18] Project: 6702 (Run 8, Clone 28, Gen 22)
[14:26:18] + Processing work unit
[14:26:18] Core required: FahCore_a3.exe
[14:26:18] Core found.


[14:26:18] + Attempting to send results [August 18 14:26:18 UTC]
[14:26:18] Working on queue slot 02 [August 18 14:26:18 UTC]
[14:26:38] + Working ...
[14:26:38] - Couldn't send HTTP request to server
[14:26:38]   (Got status 503)
[14:26:38] + Could not connect to Work Server (results)
[14:26:38]     (171.64.65.56:8080)
[14:26:38] + Retrying using alternative port
[14:26:38] - Couldn't send HTTP request to server
[14:26:38]   (Got status 503)
[14:26:38] + Could not connect to Work Server (results)
[14:26:38]     (171.64.65.56:80)
[14:26:38] - Error: Could not transmit unit 01 (completed August 18) to work server.


[14:26:38] + Attempting to send results [August 18 14:26:38 UTC]
[14:26:39] - Couldn't send HTTP request to server
[14:26:39]   (Got status 503)
[14:26:39] + Could not connect to Work Server (results)
[14:26:39]     (171.67.108.25:8080)
[14:26:39] + Retrying using alternative port
[14:26:39] - Couldn't send HTTP request to server
[14:26:39]   (Got status 503)
[14:26:39] + Could not connect to Work Server (results)
[14:26:39]     (171.67.108.25:80)
[14:26:39]   Could not transmit unit 01 to Collection server; keeping in queue.
[14:26:39]
[14:26:39] *------------------------------*
[14:26:39] Folding@Home Gromacs SMP Core
[14:26:39] Version 2.22 (Mar 12, 2010)
[14:26:39]
[14:26:39] Preparing to commence simulation
[14:26:39] - Ensuring status. Please wait.
[14:26:49] - Looking at optimizations...
[14:26:49] - Working with standard loops on this execution.
[14:26:49] - Previous termination of core was improper.
[14:26:49] - Files status OK
[14:26:50] - Expanded 1762491 -> 2247349 (decompressed 127.5 percent)
[14:26:50] Called DecompressByteArray: compressed_data_size=1762491 data_size=2247349, decompressed_data_size=2247349 diff=0
[14:26:50] - Digital signature verified
[14:26:50]
[14:26:50] Project: 6077 (Run 0, Clone 56, Gen 112)
[14:26:50]
[14:26:51] Entering M.D.
[14:26:57] Using Gromacs checkpoints
[14:26:58] Resuming from checkpoint
[14:26:59] Verified work/wudata_02.log
[14:26:59] Verified work/wudata_02.trr
[14:26:59] Verified work/wudata_02.edr
[14:26:59] Completed 71246 out of 500000 steps  (14%)
dchamberlain
 
Posts: 12
Joined: Wed Aug 20, 2008 11:53 pm

Re: 171.64.65.56 ???

Postby 7im » Wed Aug 18, 2010 4:15 pm

Grandpa_01 wrote:I was going through my logs today and noticed a strange pattern of behavior on the rig that runs -smp and uses server 171.64.65.56 It appears that every other WU that downloads from this server is some how getting corrupted.

Please post more of the WU numbers that worked, and that failed. It might help with the diagnosis.
How to provide enough information to get helpful support
Tell me and I forget. Teach me and I remember. Involve me and I learn.
User avatar
7im
 
Posts: 14648
Joined: Thu Nov 29, 2007 4:30 pm
Location: Arizona

Re: 171.64.65.56/171.67.108.25

Postby bruce » Thu Aug 19, 2010 7:42 am

dchamberlain wrote:Are still not reliably accepting finished work units...

As near as I can tell, it looks like there was a problem with this server prior to
Wed Aug 18 07:55:10 PDT 2010. Your post was made at 06:33 PDT so I'm going to assume the problem was resolved soon after you posted.

The number of connections seems to be gradually increasing since then but it's not certain whether this is in anticipation of the problem reoccurring or if the server is handling the backlog and will continue to.
bruce
 
Posts: 22694
Joined: Thu Nov 29, 2007 10:13 pm
Location: So. Cal.

ATTN PANDE GROUP

Postby 314159 » Thu Aug 19, 2010 9:45 pm

Assume nothing with respect to this server.

It is still experiencing very serious problems. Net load is back in the 200 range and I have several WUs queued and each one that completes experiences the same problem (large personal farm here, as you know, Bruce).503-503-503-503..........

It is also taking forever for the AS to stop assigning one of these machines back to the subject server. One has been trying to get work for over an hour.

Please contact whomever is in charge and alert them to this asap. (Who is in charge?) I do not know about others, but I have 6-8 more WUs assigned to this server that are due to complete within the next several hours. I assume that many others are in the same position.

If you know the cause of the high net load, please drop me a pm, old friend.(by tenure, not age) :D
John (from the central part of the Commonwealth of Virginia, U.S.A.)

A friendly visitor to what hopefully will remain a friendly Forum.
With thanks to all of the dedicated volunteers on the staff here!!
User avatar
314159
 
Posts: 316
Joined: Sun Dec 02, 2007 2:46 am
Location: http://www.teammacosx.org/

Re: 171.64.65.56 ???

Postby HaloJones » Thu Aug 19, 2010 10:08 pm

Same, can't upload after hours of trying. The problem is that the uplaod is happening but so slowly. Literally 11 hours of upload with no work being done. Transfer rates are absolutely pitiful.
1x Titan X, 1x 1070ti, 4x 1070
HaloJones
 
Posts: 347
Joined: Thu Jul 24, 2008 10:16 am

Re: 171.64.65.56 ???

Postby 314159 » Thu Aug 19, 2010 11:19 pm

Don't know your normal upload speed but I have a very fast ISP and mine take only three or so minutes and I have not had a similar problem with the 8 that went up this morning (Thursday 8/19) PRIOR to the net load hitting its present level.
Try going to one of the "speed sites" and see if your ISP is to blame (been there, done that).

Is anyone doing anything about this problem as I stated above?
We now know that it is a recurring issue. :!:

I am willing to run almost any Linux SMP WU at this stage. :(
User avatar
314159
 
Posts: 316
Joined: Sun Dec 02, 2007 2:46 am
Location: http://www.teammacosx.org/

Re: 171.64.65.56 ???

Postby muziqaz » Fri Aug 20, 2010 12:18 am

it is down completely. one client hasn't sent finished and another one cannot send finished unit and does not receive anything :( really wasting resources :(
User avatar
muziqaz
 
Posts: 596
Joined: Sun Dec 16, 2007 6:22 pm
Location: London

Re: 171.64.65.56 ???

Postby Datsun 1600 » Fri Aug 20, 2010 2:38 am

Same problem here, it is hit and miss trying to upload and download with this Server. I switched the farm off except for one comp with the Server problems, to help lighten the load and watch the outcome.


Code: Select all
[15:55:53] + Attempting to get work packet
[15:55:53] Passkey found
[15:55:53] - Connecting to assignment server
[15:55:57] - Successful: assigned to (171.64.65.56).
[15:55:57] + News From Folding@Home: Welcome to Folding@Home
[15:55:57] Loaded queue successfully.
[15:56:02] + Closed connections
[15:56:02]
[15:56:02] + Processing work unit
[15:56:02] Core required: FahCore_a3.exe
[15:56:02] Core found.
[15:56:02] Working on queue slot 02 [August 18 15:56:02 UTC]
[15:56:02] + Working ...
[15:56:02]
[15:56:02] *------------------------------*
[15:56:02] Folding@Home Gromacs SMP Core
[15:56:02] Version 2.22 (Mar 12, 2010)
[15:56:02]
[15:56:02] Preparing to commence simulation
[15:56:02] - Looking at optimizations...
[15:56:02] - Created dyn
[15:56:02] - Files status OK
[15:56:02] - Expanded 764098 -> 1404481 (decompressed 183.8 percent)
[15:56:02] Called DecompressByteArray: compressed_data_size=764098 data_size=1404481, decompressed_data_size=1404481 diff=0
[15:56:02] - Digital signature verified
[15:56:02]
[15:56:02] Project: 6702 (Run 14, Clone 84, Gen 27)
[15:56:02]
[15:56:02] Assembly optimizations on if available.
[15:56:02] Entering M.D.
[15:56:09] Completed 0 out of 2000000 steps  (0%)
[16:04:04] Completed 20000 out of 2000000 steps  (1%)
[16:12:00] Completed 40000 out of 2000000 steps  (2%)
Snip
[05:01:32] Completed 1980000 out of 2000000 steps  (99%)
[05:09:26] Completed 2000000 out of 2000000 steps  (100%)
[05:09:27] DynamicWrapper: Finished Work Unit: sleep=10000
[05:09:37]
[05:09:37] Finished Work Unit:
[05:09:37] - Reading up to 687408 from "work/wudata_02.trr": Read 687408
[05:09:37] trr file hash check passed.
[05:09:37] - Reading up to 42653220 from "work/wudata_02.xtc": Read 42653220
[05:09:37] xtc file hash check passed.
[05:09:37] edr file hash check passed.
[05:09:37] logfile size: 278307
[05:09:37] Leaving Run
[05:09:38] - Writing 43621271 bytes of core data to disk...
[05:09:39]   ... Done.
[05:09:42] - Shutting down core
[05:09:42]
[05:09:42] Folding@home Core Shutdown: FINISHED_UNIT
[05:09:45] CoreStatus = 64 (100)
[05:09:45] Sending work to server
[05:09:45] Project: 6702 (Run 14, Clone 84, Gen 27)


[05:09:45] + Attempting to send results [August 19 05:09:45 UTC]
[05:21:43] + Results successfully sent
[05:21:43] Thank you for your contribution to Folding@Home.
[05:21:43] + Number of Units Completed: 641

[05:21:48] - Preparing to get new work unit...
[05:21:48] Cleaning up work directory
[05:21:49] + Attempting to get work packet
[05:21:49] Passkey found
[05:21:49] - Connecting to assignment server
[05:21:52] - Successful: assigned to (171.64.65.56).
[05:21:52] + News From Folding@Home: Welcome to Folding@Home
[05:21:53] Loaded queue successfully.
[05:21:57] + Closed connections
[05:21:57]
[05:21:57] + Processing work unit
[05:21:57] Core required: FahCore_a3.exe
[05:21:57] Core found.
[05:21:57] Working on queue slot 03 [August 19 05:21:57 UTC]
[05:21:57] + Working ...
[05:21:57]
[05:21:57] *------------------------------*
[05:21:57] Folding@Home Gromacs SMP Core
[05:21:57] Version 2.22 (Mar 12, 2010)
[05:21:57]
[05:21:57] Preparing to commence simulation
[05:21:57] - Looking at optimizations...
[05:21:57] - Created dyn
[05:21:57] - Files status OK
[05:21:57] - Expanded 764045 -> 1404481 (decompressed 183.8 percent)
[05:21:57] Called DecompressByteArray: compressed_data_size=764045 data_size=1404481, decompressed_data_size=1404481 diff=0
[05:21:57] - Digital signature verified
[05:21:57]
[05:21:57] Project: 6702 (Run 14, Clone 84, Gen 28)
[05:21:57]
[05:21:58] Assembly optimizations on if available.
[05:21:58] Entering M.D.
[05:22:04] Completed 0 out of 2000000 steps  (0%)
[05:29:59] Completed 20000 out of 2000000 steps  (1%)
Snip
[18:20:56] Completed 1980000 out of 2000000 steps  (99%)
[18:28:46] Completed 2000000 out of 2000000 steps  (100%)
[18:28:47] DynamicWrapper: Finished Work Unit: sleep=10000
[18:28:57]
[18:28:57] Finished Work Unit:
[18:28:57] - Reading up to 687408 from "work/wudata_03.trr": Read 687408
[18:28:57] trr file hash check passed.
[18:28:57] - Reading up to 42688700 from "work/wudata_03.xtc": Read 42688700
[18:28:57] xtc file hash check passed.
[18:28:57] edr file hash check passed.
[18:28:57] logfile size: 278316
[18:28:57] Leaving Run
[18:28:59] - Writing 43656760 bytes of core data to disk...
[18:29:00]   ... Done.
[18:29:02] - Shutting down core
[18:29:02]
[18:29:02] Folding@home Core Shutdown: FINISHED_UNIT
[18:29:07] CoreStatus = 64 (100)
[18:29:07] Sending work to server
[18:29:07] Project: 6702 (Run 14, Clone 84, Gen 28)


[18:29:07] + Attempting to send results [August 19 18:29:07 UTC]
[18:29:13] - Couldn't send HTTP request to server
[18:29:13]   (Got status 503)
[18:29:13] + Could not connect to Work Server (results)
[18:29:13]     (171.64.65.56:8080)
[18:29:13] + Retrying using alternative port
[18:29:14] - Couldn't send HTTP request to server
[18:29:14]   (Got status 503)
[18:29:14] + Could not connect to Work Server (results)
[18:29:14]     (171.64.65.56:80)
[18:29:14] - Error: Could not transmit unit 03 (completed August 19) to work server.
[18:29:14]   Keeping unit 03 in queue.
[18:29:14] Project: 6702 (Run 14, Clone 84, Gen 28)


[18:29:14] + Attempting to send results [August 19 18:29:14 UTC]
[18:29:14] - Couldn't send HTTP request to server
[18:29:14]   (Got status 503)
[18:29:14] + Could not connect to Work Server (results)
[18:29:14]     (171.64.65.56:8080)
[18:29:14] + Retrying using alternative port
[18:29:14] - Couldn't send HTTP request to server
[18:29:14]   (Got status 503)
[18:29:14] + Could not connect to Work Server (results)
[18:29:14]     (171.64.65.56:80)
[18:29:14] - Error: Could not transmit unit 03 (completed August 19) to work server.


[18:29:14] + Attempting to send results [August 19 18:29:14 UTC]
[18:29:52] + Could not connect to Work Server (results)
[18:29:52]     (171.67.108.25:8080)
[18:29:52] + Retrying using alternative port
[18:30:28] + Could not connect to Work Server (results)
[18:30:28]     (171.67.108.25:80)
[18:30:28]   Could not transmit unit 03 to Collection server; keeping in queue.
[18:30:28] - Preparing to get new work unit...
[18:30:28] Cleaning up work directory
[18:30:28] + Attempting to get work packet
[18:30:28] Passkey found
[18:30:28] - Connecting to assignment server
[18:30:36] - Successful: assigned to (171.64.65.54).
[18:30:36] + News From Folding@Home: Welcome to Folding@Home
[18:30:36] Loaded queue successfully.
[18:30:47] Project: 6702 (Run 14, Clone 84, Gen 28)


[18:30:47] + Attempting to send results [August 19 18:30:47 UTC]
[18:30:49] - Couldn't send HTTP request to server
[18:30:49]   (Got status 503)
[18:30:49] + Could not connect to Work Server (results)
[18:30:49]     (171.64.65.56:8080)
[18:30:49] + Retrying using alternative port
[18:34:22] - Couldn't send HTTP request to server
[18:34:22] + Could not connect to Work Server (results)
[18:34:22]     (171.64.65.56:80)
[18:34:22] - Error: Could not transmit unit 03 (completed August 19) to work server.


[18:34:22] + Attempting to send results [August 19 18:34:22 UTC]
[18:34:58] + Could not connect to Work Server (results)
[18:34:58]     (171.67.108.25:8080)
[18:34:58] + Retrying using alternative port
[18:35:34] + Could not connect to Work Server (results)
[18:35:34]     (171.67.108.25:80)
[18:35:34]   Could not transmit unit 03 to Collection server; keeping in queue.
[18:35:34] + Closed connections
[18:35:34]
[18:35:34] + Processing work unit
[18:35:34] Core required: FahCore_a3.exe
[18:35:34] Core found.
[18:35:34] Working on queue slot 04 [August 19 18:35:34 UTC]
[18:35:34] + Working ...
[18:35:34]
[18:35:34] *------------------------------*
[18:35:34] Folding@Home Gromacs SMP Core
[18:35:34] Version 2.22 (Mar 12, 2010)
[18:35:34]
[18:35:34] Preparing to commence simulation
[18:35:34] - Looking at optimizations...
[18:35:34] - Created dyn
[18:35:34] - Files status OK
[18:35:34] - Expanded 1779517 -> 2059833 (decompressed 115.7 percent)
[18:35:34] Called DecompressByteArray: compressed_data_size=1779517 data_size=2059833, decompressed_data_size=2059833 diff=0
[18:35:34] - Digital signature verified
[18:35:34]
[18:35:34] Project: 6024 (Run 0, Clone 145, Gen 254)
[18:35:34]
[18:35:34] Assembly optimizations on if available.
[18:35:34] Entering M.D.
[18:35:41] Completed 0 out of 500000 steps  (0%)
[18:38:58] Completed 5000 out of 500000 steps  (1%)
[18:42:15] Completed 10000 out of 500000 steps  (2%)
[18:45:33] Completed 15000 out of 500000 steps  (3%)
Snip
[20:56:44] Completed 215000 out of 500000 steps  (43%)
[20:59:59] Completed 220000 out of 500000 steps  (44%)
[21:03:16] Completed 225000 out of 500000 steps  (45%)
[21:06:32] Completed 230000 out of 500000 steps  (46%)
[21:07:21] Project: 6702 (Run 14, Clone 84, Gen 28)


[21:07:21] + Attempting to send results [August 19 21:07:21 UTC]
[21:07:28] - Couldn't send HTTP request to server
[21:07:28]   (Got status 503)
[21:07:28] + Could not connect to Work Server (results)
[21:07:28]     (171.64.65.56:8080)
[21:07:28] + Retrying using alternative port
[21:07:28] - Couldn't send HTTP request to server
[21:07:28]   (Got status 503)
[21:07:28] + Could not connect to Work Server (results)
[21:07:28]     (171.64.65.56:80)
[21:07:28] - Error: Could not transmit unit 03 (completed August 19) to work server.


[21:07:28] + Attempting to send results [August 19 21:07:28 UTC]
[21:08:06] + Could not connect to Work Server (results)
[21:08:06]     (171.67.108.25:8080)
[21:08:06] + Retrying using alternative port
[21:08:07] - Couldn't send HTTP request to server
[21:08:07]   (Got status 503)
[21:08:07] + Could not connect to Work Server (results)
[21:08:07]     (171.67.108.25:80)
[21:08:07]   Could not transmit unit 03 to Collection server; keeping in queue.
[21:09:49] Completed 235000 out of 500000 steps  (47%)
[21:13:04] Completed 240000 out of 500000 steps  (48%)
Snip
[23:56:45] Completed 490000 out of 500000 steps  (98%)
[00:00:02] Completed 495000 out of 500000 steps  (99%)
[00:03:19] Completed 500000 out of 500000 steps  (100%)
[00:03:21] DynamicWrapper: Finished Work Unit: sleep=10000
[00:03:31]
[00:03:31] Finished Work Unit:
[00:03:31] - Reading up to 20283912 from "work/wudata_04.trr": Read 20283912
[00:03:31] trr file hash check passed.
[00:03:31] edr file hash check passed.
[00:03:31] logfile size: 54460
[00:03:31] Leaving Run
[00:03:34] - Writing 20372648 bytes of core data to disk...
[00:03:35]   ... Done.
[00:03:38] - Shutting down core
[00:03:38]
[00:03:38] Folding@home Core Shutdown: FINISHED_UNIT
[00:03:42] CoreStatus = 64 (100)
[00:03:42] Sending work to server
[00:03:42] Project: 6024 (Run 0, Clone 145, Gen 254)


[00:03:42] + Attempting to send results [August 20 00:03:42 UTC]
[00:09:22] + Results successfully sent
[00:09:22] Thank you for your contribution to Folding@Home.
[00:09:22] + Number of Units Completed: 642

[00:09:27] Project: 6702 (Run 14, Clone 84, Gen 28)


[00:09:27] + Attempting to send results [August 20 00:09:27 UTC]
[00:09:31] - Couldn't send HTTP request to server
[00:09:31]   (Got status 503)
[00:09:31] + Could not connect to Work Server (results)
[00:09:31]     (171.64.65.56:8080)
[00:09:31] + Retrying using alternative port
[00:09:31] - Couldn't send HTTP request to server
[00:09:31]   (Got status 503)
[00:09:31] + Could not connect to Work Server (results)
[00:09:31]     (171.64.65.56:80)
[00:09:31] - Error: Could not transmit unit 03 (completed August 19) to work server.


[00:09:31] + Attempting to send results [August 20 00:09:31 UTC]
[00:09:34] - Couldn't send HTTP request to server
[00:09:34]   (Got status 503)
[00:09:34] + Could not connect to Work Server (results)
[00:09:34]     (171.67.108.25:8080)
[00:09:34] + Retrying using alternative port
[00:09:35] - Couldn't send HTTP request to server
[00:09:35]   (Got status 503)
[00:09:35] + Could not connect to Work Server (results)
[00:09:35]     (171.67.108.25:80)
[00:09:35]   Could not transmit unit 03 to Collection server; keeping in queue.
[00:09:35] - Preparing to get new work unit...
[00:09:35] Cleaning up work directory
[00:09:35] + Attempting to get work packet
[00:09:35] Passkey found
[00:09:35] - Connecting to assignment server
[00:09:43] - Successful: assigned to (171.64.65.56).
[00:09:43] + News From Folding@Home: Welcome to Folding@Home
[00:09:43] Loaded queue successfully.
[00:09:43] - Couldn't send HTTP request to server
[00:09:43]   (Got status 503)
[00:09:43] + Could not connect to Work Server
[00:09:43] - Attempt #1  to get work failed, and no other work to do.
Waiting before retry.
[00:09:51] + Attempting to get work packet
[00:09:51] Passkey found
[00:09:51] - Connecting to assignment server
[00:09:52] - Successful: assigned to (171.64.65.56).
[00:09:52] + News From Folding@Home: Welcome to Folding@Home
[00:09:52] Loaded queue successfully.
[00:09:52] - Couldn't send HTTP request to server
[00:09:52]   (Got status 503)
[00:09:52] + Could not connect to Work Server
[00:09:52] - Attempt #2  to get work failed, and no other work to do.
Waiting before retry.
[00:10:05] + Attempting to get work packet
[00:10:05] Passkey found
[00:10:05] - Connecting to assignment server
[00:10:06] - Successful: assigned to (171.64.65.56).
[00:10:06] + News From Folding@Home: Welcome to Folding@Home
[00:10:06] Loaded queue successfully.
[00:10:06] - Couldn't send HTTP request to server
[00:10:06]   (Got status 503)
[00:10:06] + Could not connect to Work Server
[00:10:06] - Attempt #3  to get work failed, and no other work to do.
Waiting before retry.
[00:10:40] + Attempting to get work packet
[00:10:40] Passkey found
[00:10:40] - Connecting to assignment server
[00:10:41] - Successful: assigned to (171.64.65.56).
[00:10:41] + News From Folding@Home: Welcome to Folding@Home
[00:10:41] Loaded queue successfully.
[00:10:41] - Couldn't send HTTP request to server
[00:10:41]   (Got status 503)
[00:10:41] + Could not connect to Work Server
[00:10:41] - Attempt #4  to get work failed, and no other work to do.
Waiting before retry.
[00:11:35] + Attempting to get work packet
[00:11:35] Passkey found
[00:11:35] - Connecting to assignment server
[00:11:36] - Successful: assigned to (171.64.65.56).
[00:11:36] + News From Folding@Home: Welcome to Folding@Home
[00:11:36] Loaded queue successfully.
[00:11:37] - Couldn't send HTTP request to server
[00:11:37]   (Got status 503)
[00:11:37] + Could not connect to Work Server
[00:11:37] - Attempt #5  to get work failed, and no other work to do.
Waiting before retry.
[00:12:58] + Attempting to get work packet
[00:12:58] Passkey found
[00:12:58] - Connecting to assignment server
[00:12:59] - Successful: assigned to (171.64.65.56).
[00:12:59] + News From Folding@Home: Welcome to Folding@Home
[00:12:59] Loaded queue successfully.
[00:12:59] - Couldn't send HTTP request to server
[00:12:59]   (Got status 503)
[00:12:59] + Could not connect to Work Server
[00:12:59] - Attempt #6  to get work failed, and no other work to do.
Waiting before retry.
[00:15:46] + Attempting to get work packet
[00:15:46] Passkey found
[00:15:46] - Connecting to assignment server
[00:15:46] - Successful: assigned to (171.64.65.56).
[00:15:46] + News From Folding@Home: Welcome to Folding@Home
[00:15:47] Loaded queue successfully.
[00:15:47] - Couldn't send HTTP request to server
[00:15:47]   (Got status 503)
[00:15:47] + Could not connect to Work Server
[00:15:47] - Attempt #7  to get work failed, and no other work to do.
Waiting before retry.
[00:21:13] + Attempting to get work packet
[00:21:13] Passkey found
[00:21:13] - Connecting to assignment server
[00:21:17] - Successful: assigned to (171.64.65.54).
[00:21:17] + News From Folding@Home: Welcome to Folding@Home
[00:21:17] Loaded queue successfully.
[00:21:28] Project: 6702 (Run 14, Clone 84, Gen 28)


[00:21:28] + Attempting to send results [August 20 00:21:28 UTC]
[00:21:32] - Couldn't send HTTP request to server
[00:21:32]   (Got status 503)
[00:21:32] + Could not connect to Work Server (results)
[00:21:32]     (171.64.65.56:8080)
[00:21:32] + Retrying using alternative port
[00:21:32] - Couldn't send HTTP request to server
[00:21:32]   (Got status 503)
[00:21:32] + Could not connect to Work Server (results)
[00:21:32]     (171.64.65.56:80)
[00:21:32] - Error: Could not transmit unit 03 (completed August 19) to work server.


[00:21:32] + Attempting to send results [August 20 00:21:32 UTC]
[00:21:36] - Couldn't send HTTP request to server
[00:21:36]   (Got status 503)
[00:21:36] + Could not connect to Work Server (results)
[00:21:36]     (171.67.108.25:8080)
[00:21:36] + Retrying using alternative port
[00:22:10] + Could not connect to Work Server (results)
[00:22:10]     (171.67.108.25:80)
[00:22:10]   Could not transmit unit 03 to Collection server; keeping in queue.
[00:22:10] + Closed connections
[00:22:10]
[00:22:10] + Processing work unit
[00:22:10] Core required: FahCore_a3.exe
[00:22:10] Core found.
[00:22:10] Working on queue slot 05 [August 20 00:22:10 UTC]
[00:22:10] + Working ...
[00:22:11]
[00:22:11] *------------------------------*
[00:22:11] Folding@Home Gromacs SMP Core
[00:22:11] Version 2.22 (Mar 12, 2010)
[00:22:11]
[00:22:11] Preparing to commence simulation
[00:22:11] - Looking at optimizations...
[00:22:11] - Created dyn
[00:22:11] - Files status OK
[00:22:11] - Expanded 1765163 -> 2254429 (decompressed 127.7 percent)
[00:22:11] Called DecompressByteArray: compressed_data_size=1765163 data_size=2254429, decompressed_data_size=2254429 diff=0
[00:22:11] - Digital signature verified
[00:22:11]
[00:22:11] Project: 6059 (Run 0, Clone 31, Gen 117)
[00:22:11]
[00:22:11] Assembly optimizations on if available.
[00:22:11] Entering M.D.
[00:22:17] Completed 0 out of 500000 steps  (0%)
[00:25:39] Completed 5000 out of 500000 steps  (1%)
Snip
[01:59:48] Completed 145000 out of 500000 steps  (29%)
[02:03:10] Completed 150000 out of 500000 steps  (30%)
[02:06:32] Completed 155000 out of 500000 steps  (31%)
[02:09:54] Completed 160000 out of 500000 steps  (32%)
[02:13:19] Completed 165000 out of 500000 steps  (33%)
Datsun 1600
 
Posts: 51
Joined: Mon May 05, 2008 2:42 am

Re: 171.64.65.56 ???

Postby sortofageek » Fri Aug 20, 2010 5:28 pm

Pande Group staff is looking into these issues and working on some help for a probably overloaded server. Hopefully, you will see some relief soon. :)
User avatar
sortofageek
Site Admin
 
Posts: 3194
Joined: Fri Nov 30, 2007 8:06 pm
Location: Team Helix

Re: 171.64.65.56 ???

Postby kasson » Fri Aug 20, 2010 5:39 pm

We've brought some projects online on a different SMP server. Essentially the problem is that some of the servers are low on jobs and another server has been up and down for RAID maintenance, so this one got overloaded. The server's been up throughout--the transaction threads just get full. We're working on some additional load-balancing.
User avatar
kasson
Pande Group Member
 
Posts: 1906
Joined: Thu Nov 29, 2007 9:37 pm

Re: 171.64.65.56 ???

Postby 7im » Fri Aug 20, 2010 7:17 pm

Thanks for the additional info, kasson.
User avatar
7im
 
Posts: 14648
Joined: Thu Nov 29, 2007 4:30 pm
Location: Arizona

Re: 171.64.65.56 ???

Postby 314159 » Thu Sep 02, 2010 5:25 am

Hey Peter,

The Net Load on this one is ~200 once again. (DL is fine)
Can you or someone else correct this please?
I posted above in another thread but thought that I might catch you following this one. :)

Have some queued now and three others dues shortly. :e?:

Thanks "neighbor" (will explain this comment privately sometime soon).
User avatar
314159
 
Posts: 316
Joined: Sun Dec 02, 2007 2:46 am
Location: http://www.teammacosx.org/

Re: 171.64.65.56 ???

Postby kasson » Thu Sep 02, 2010 3:01 pm

Yes, this is one I tend to follow more closely. :)
We just restarted the server code; hopefully that will help with any "stuck" transfers.

(I think I may follow your comment, but that would be quite a coincidence. Will await clarification.)
User avatar
kasson
Pande Group Member
 
Posts: 1906
Joined: Thu Nov 29, 2007 9:37 pm

Next

Return to Issues with a specific server

Who is online

Users browsing this forum: No registered users and 8 guests

cron